When you browse on this site, cookies collect data to enhance your experience and personalize the content and advertising you see.
Visit our Privacy Policy to learn more. By continuing to use the site, you agree to this use of cookies and data.
  • In United Kingdom
  • List of Countries
  • For 7 days
  • Water Temperature
  • Satellite Maps
  • Weather Map
  • Weather Widgets
  • user-avatar
    Login

    Hourly Weather Zlotkowo

    Today, 10 December, Monday

    Time Temperature Precipitation Wind Pressure Humidity
    00:00 +4°C° 0.5 mm 7 mps 739 mmHg 80%
    01:00 +4°C° 0 mm 7 mps 739 mmHg 79%
    02:00 +4°C° 0.2 mm 7 mps 740 mmHg 77%
    03:00 +2°C° 0.2 mm 8 mps 740 mmHg 76%
    04:00 +2°C° 0.2 mm 8 mps 741 mmHg 74%
    05:00 +2°C° 0 mm 8 mps 742 mmHg 75%
    06:00 +2°C° 0 mm 7 mps 742 mmHg 75%
    07:00 +2°C° 0 mm 7 mps 743 mmHg 75%
    08:00 +2°C° 0 mm 7 mps 744 mmHg 74%
    09:00 +2°C° 0 mm 7 mps 744 mmHg 74%
    10:00 +1°C° 0 mm 8 mps 745 mmHg 73%
    11:00 +2°C° 0.1 mm 8 mps 745 mmHg 70%
    12:00 +2°C° 0.1 mm 8 mps 745 mmHg 67%
    13:00 +2°C° 0.1 mm 8 mps 745 mmHg 64%
    14:00 +3°C° 0 mm 7 mps 745 mmHg 66%
    15:00 +2°C° 0 mm 6 mps 746 mmHg 67%
    16:00 +2°C° 0 mm 6 mps 746 mmHg 69%
    17:00 +2°C° 0 mm 6 mps 746 mmHg 71%
    18:00 +1°C° 0 mm 6 mps 746 mmHg 73%
    19:00 +1°C° 0 mm 6 mps 746 mmHg 75%
    20:00 +1°C° 0 mm 5 mps 746 mmHg 76%
    21:00 0°C° 0 mm 5 mps 746 mmHg 78%
    22:00 0°C° 0 mm 5 mps 746 mmHg 80%
    23:00 0°C° 0 mm 5 mps 746 mmHg 81%

    Tomorrow, 11 December, Tuesday

    Time Temperature Precipitation Wind Pressure Humidity
    00:00 0°C° 0 mm 5 mps 746 mmHg 81%
    01:00 0°C° 0 mm 5 mps 746 mmHg 82%
    02:00 0°C° 0.2 mm 5 mps 746 mmHg 81%
    03:00 0°C° 0.2 mm 5 mps 746 mmHg 81%
    04:00 +1°C° 0.2 mm 5 mps 745 mmHg 81%
    05:00 +1°C° 0.3 mm 5 mps 745 mmHg 82%
    06:00 +1°C° 0.3 mm 5 mps 745 mmHg 83%
    07:00 +1°C° 0.3 mm 4 mps 745 mmHg 84%
    08:00 +1°C° 0.3 mm 4 mps 746 mmHg 85%
    09:00 +1°C° 0.3 mm 4 mps 746 mmHg 86%
    10:00 +1°C° 0.3 mm 4 mps 746 mmHg 87%
    11:00 +1°C° 0.2 mm 4 mps 746 mmHg 86%
    12:00 +1°C° 0.2 mm 4 mps 747 mmHg 85%
    13:00 +3°C° 0.2 mm 4 mps 747 mmHg 84%
    14:00 +1°C° 0.2 mm 4 mps 748 mmHg 86%
    15:00 +2°C° 0.2 mm 3 mps 748 mmHg 87%
    16:00 +2°C° 0.2 mm 3 mps 748 mmHg 89%
    17:00 +1°C° 0.1 mm 3 mps 749 mmHg 90%
    18:00 +1°C° 0.1 mm 3 mps 749 mmHg 91%
    19:00 +1°C° 0.1 mm 3 mps 750 mmHg 93%
    20:00 +1°C° 0 mm 3 mps 751 mmHg 93%
    21:00 +1°C° 0 mm 3 mps 751 mmHg 93%
    22:00 +1°C° 0 mm 3 mps 752 mmHg 93%
    23:00 0°C° 0 mm 3 mps 752 mmHg 93%

    Day after tomorrow, 12 December, Wednesday

    Time Temperature Precipitation Wind Pressure Humidity
    00:00 0°C° 0 mm 3 mps 752 mmHg 93%
    01:00 0°C° 0 mm 3 mps 753 mmHg 93%
    02:00 -1°C° 0 mm 3 mps 753 mmHg 93%
    03:00 -1°C° 0 mm 3 mps 753 mmHg 93%
    04:00 -1°C° 0 mm 3 mps 754 mmHg 94%
    05:00 -1°C° 0 mm 3 mps 754 mmHg 94%
    06:00 -2°C° 0 mm 2 mps 754 mmHg 94%
    07:00 -2°C° 0 mm 2 mps 755 mmHg 95%
    08:00 -1°C° 0 mm 2 mps 755 mmHg 92%
    09:00 -1°C° 0 mm 2 mps 755 mmHg 90%
    10:00 -1°C° 0 mm 2 mps 756 mmHg 88%
    11:00 +1°C° 0 mm 2 mps 756 mmHg 86%
    12:00 +1°C° 0 mm 2 mps 756 mmHg 84%
    13:00 +2°C° 0 mm 2 mps 756 mmHg 82%
    14:00 +2°C° 0 mm 1 mps 756 mmHg 85%
    15:00 +1°C° 0 mm 1 mps 756 mmHg 87%
    16:00 +1°C° 0 mm 1 mps 756 mmHg 90%
    17:00 +1°C° 0 mm 1 mps 756 mmHg 91%
    18:00 0°C° 0 mm 1 mps 756 mmHg 91%
    19:00 0°C° 0 mm 1 mps 757 mmHg 92%
    20:00 0°C° 0 mm 1 mps 757 mmHg 92%
    21:00 0°C° 0 mm 1 mps 757 mmHg 92%
    22:00 0°C° 0 mm 1 mps 757 mmHg 92%
    23:00 0°C° 0 mm 1 mps 757 mmHg 91%

    13 December, Thursday

    Time Temperature Precipitation Wind Pressure Humidity
    00:00 0°C° 0 mm 1 mps 757 mmHg 91%
    01:00 0°C° 0 mm 1 mps 757 mmHg 91%
    02:00 0°C° 0 mm 1 mps 757 mmHg 91%
    03:00 -1°C° 0 mm 1 mps 757 mmHg 91%
    04:00 -1°C° 0 mm 1 mps 757 mmHg 91%
    05:00 -1°C° 0 mm 1 mps 757 mmHg 91%
    06:00 -1°C° 0 mm 1 mps 757 mmHg 92%
    07:00 -3°C° 0 mm 2 mps 757 mmHg 92%
    08:00 -2°C° 0 mm 2 mps 757 mmHg 90%
    09:00 -2°C° 0 mm 2 mps 757 mmHg 89%
    10:00 -1°C° 0 mm 2 mps 757 mmHg 87%
    11:00 -1°C° 0 mm 2 mps 757 mmHg 86%
    12:00 -1°C° 0 mm 2 mps 757 mmHg 85%
    13:00 +1°C° 0 mm 2 mps 757 mmHg 83%
    14:00 -1°C° 0 mm 2 mps 757 mmHg 85%
    15:00 -1°C° 0 mm 2 mps 756 mmHg 87%
    16:00 +1°C° 0 mm 1 mps 756 mmHg 89%
    17:00 -1°C° 0 mm 2 mps 756 mmHg 89%
    18:00 -1°C° 0 mm 2 mps 757 mmHg 89%
    19:00 -1°C° 0 mm 2 mps 757 mmHg 88%
    20:00 -1°C° 0 mm 2 mps 757 mmHg 89%
    21:00 +1°C° 0 mm 1 mps 757 mmHg 89%
    22:00 +1°C° 0 mm 1 mps 757 mmHg 89%
    23:00 +1°C° 0 mm 1 mps 758 mmHg 89%

    14 December, Friday

    Time Temperature Precipitation Wind Pressure Humidity
    00:00 +1°C° 0 mm 1 mps 758 mmHg 89%
    01:00 +1°C° 0 mm 1 mps 758 mmHg 88%
    02:00 +1°C° 0 mm 1 mps 758 mmHg 88%
    03:00 +1°C° 0 mm 1 mps 758 mmHg 87%
    04:00 -1°C° 0 mm 2 mps 758 mmHg 87%
    05:00 -1°C° 0 mm 2 mps 758 mmHg 87%
    06:00 -2°C° 0 mm 2 mps 758 mmHg 88%
    07:00 -2°C° 0 mm 2 mps 759 mmHg 88%
    08:00 -1°C° 0 mm 2 mps 759 mmHg 87%
    09:00 -1°C° 0 mm 2 mps 760 mmHg 85%
    10:00 -1°C° 0 mm 2 mps 760 mmHg 84%
    11:00 -1°C° 0 mm 2 mps 760 mmHg 82%
    12:00 -1°C° 0 mm 2 mps 760 mmHg 81%
    13:00 +1°C° 0 mm 2 mps 761 mmHg 79%
    14:00 -1°C° 0 mm 2 mps 761 mmHg 83%
    15:00 -2°C° 0 mm 2 mps 761 mmHg 86%
    16:00 -2°C° 0 mm 2 mps 761 mmHg 90%
    17:00 -2°C° 0 mm 2 mps 762 mmHg 91%
    18:00 -3°C° 0 mm 2 mps 762 mmHg 92%
    19:00 -3°C° 0 mm 2 mps 762 mmHg 92%
    20:00 -3°C° 0 mm 2 mps 763 mmHg 92%
    21:00 -3°C° 0 mm 2 mps 763 mmHg 92%
    22:00 -3°C° 0 mm 2 mps 763 mmHg 92%
    23:00 -3°C° 0 mm 2 mps 763 mmHg 92%

    15 December, Saturday

    Time Temperature Precipitation Wind Pressure Humidity
    00:00 -3°C° 0 mm 2 mps 763 mmHg 92%
    01:00 -2°C° 0 mm 2 mps 764 mmHg 92%
    02:00 -2°C° 0 mm 2 mps 764 mmHg 91%
    03:00 -2°C° 0 mm 2 mps 764 mmHg 91%
    04:00 -2°C° 0 mm 2 mps 764 mmHg 91%
    05:00 -2°C° 0 mm 2 mps 764 mmHg 90%
    06:00 -2°C° 0 mm 2 mps 765 mmHg 90%
    07:00 -2°C° 0 mm 2 mps 765 mmHg 89%
    08:00 -2°C° 0 mm 2 mps 765 mmHg 87%
    09:00 -2°C° 0 mm 3 mps 765 mmHg 85%
    10:00 -1°C° 0 mm 3 mps 766 mmHg 83%
    11:00 -1°C° 0 mm 3 mps 766 mmHg 81%
    12:00 -1°C° 0 mm 3 mps 765 mmHg 79%
    13:00 0°C° 0 mm 3 mps 765 mmHg 77%
    14:00 -1°C° 0 mm 3 mps 766 mmHg 80%
    15:00 -2°C° 0 mm 3 mps 766 mmHg 83%
    16:00 -2°C° 0 mm 2 mps 766 mmHg 87%
    17:00 -2°C° 0 mm 3 mps 766 mmHg 87%
    18:00 -4°C° 0 mm 3 mps 766 mmHg 88%
    19:00 -4°C° 0 mm 3 mps 766 mmHg 89%
    20:00 -4°C° 0 mm 3 mps 766 mmHg 89%
    21:00 -4°C° 0 mm 3 mps 766 mmHg 89%
    22:00 -4°C° 0 mm 4 mps 766 mmHg 89%
    23:00 -4°C° 0 mm 4 mps 766 mmHg 89%
    Show more